星链-37136(STARLINK-37136)

导读

STARLINK-37136(NORAD编号68347)是SpaceX星链星座的第二代Mini卫星,属于低轨通信卫星,隶属于Starlink Group 6-36发射批次,于2023年12月29日由猎鹰9号Block5火箭在范登堡SLC-40发射场送入约530公里近地轨道。 作为星链第二代小型卫星,它配备Ku/Ka频段相控阵天线与激光星间链路,可支持高速宽带互联网接入,典型时延压缩至25毫秒左右,单激光链路速率最高达200Gbps,依托氩气推进器完成轨道机动与离轨处置,是星链实现全球覆盖星座组网的重要组成部分,服务全球多地消费者与行业用户接入卫星互联网。

Basic Information
目录编号:
68347
目录名称:
STARLINK-37136
国际标识:
2026-059AC
轨道中心:
EARTH
卫星名称:
星链-37136
卫星全名:
星链-37136(STARLINK-37136)
卫星状态:
在轨 (已飞行175 天)
发射日期:
2026-03-22 UTC
国别 :
美国 (US)
星等 :
--
This satellite is enrolled in the Space Conjunction Data Service (SCDS) and the current flight risk assessment level is: No High Risk
Orbit Information
数据来源 国际轨道数据
星历时间: 2026-09-13T10:18:55+0800
8小时前
查看轨道信息
半长轴: 6840.836km
偏心率: 0.0001355
轨道倾角: 53.160°
近地点辐角 105.547°
升交点赤经 195.982°
平近点角 254.569°
近地点: 461.772km
远地点: 463.626km
周期: 93.848分钟
每日圈数: 15.344017
Detailed Information
固有亮度:
5
最大亮度:
2.5
卫星平台:
Starlink V1.0
覆盖范围:
全球
运营商:
太空探索技术公司
运营商所在国:
美国
制造商(研发单位):
太空探索技术公司
制造商所在国:
美国
使用方式:
暂无
Satellite Introduction
Starlink 计划是 SpaceX 推出的全球卫星互联网项目,通过发射低轨道卫星,为全球尤其是偏远地区提供高速、低延迟的互联网服务。自 2019 年起,Starlink 已部署数千颗卫星,旨在缩小全球数字鸿沟,推动互联网普及。该项目还为军事、航空等行业提供通信支持,带来广泛经济效益。
2D Orbit Map
3D Orbit Map
Orbit Altitude Analysis Chart
Orbit Inclination Analysis Chart
Orbit Comprehensive Analysis Chart
View Comprehensive Chart
Conjunction Data List
Event ID Objects TCA Miss Dist (km) Collision Risk Probability Collision Risk Index (CRI) Action
CDM_260915-121406-231506-834721
2026-09-15T
12:14:27+0000
0.621 km
远距离
1.043355E-4 高风险 0.75
CDM_260915-134806-231506-834721
2026-09-15T
13:48:14+0000
1.471 km
极远距离
6.187636E-6 低风险 0.51
CDM_260915-104006-231506-834721
2026-09-15T
10:40:40+0000
2.484 km
极远距离
1.565064E-6 低风险 0.39
CDM_260915-021605-372006-834721
2026-09-15T
02:16:13+0000
2.408 km
极远距离
1.274328E-6 低风险 0.37
CDM_260915-115405-248906-834721
2026-09-15T
11:54:09+0000
2.920 km
极远距离
1.031031E-6 低风险 0.35
Miss Distance Evolution Trend with All Objects
Collision Probability Evolution Trend with All Objects